owner,sensor,date,latitude,longitude,vertical_datum,sea_water_temperature,qcFlag
BP,ioos:station:wmo:42880:1,2022-11-01T00:02:00Z,27.2223,-90.0129,10.5,27.3,11111222
BP,ioos:station:wmo:42880:1,2022-11-01T00:12:00Z,27.2223,-90.0129,10.6,27.3,11111222
BP,ioos:station:wmo:42880:1,2022-11-01T00:22:00Z,27.2223,-90.0129,10.6,27.3,11111222
BP,ioos:station:wmo:42880:1,2022-11-01T00:32:00Z,27.2223,-90.0129,10.6,27.3,11111222
BP,ioos:station:wmo:42880:1,2022-11-01T00:42:00Z,27.2222,-90.0129,10.4,27.3,11111222
BP,ioos:station:wmo:42880:1,2022-11-01T00:52:00Z,27.2222,-90.0129,10.0,27.3,11111222
BP,ioos:station:wmo:42880:1,2022-11-01T01:02:00Z,27.2223,-90.0129,10.0,27.3,11111222
BP,ioos:station:wmo:42880:1,2022-11-01T01:12:00Z,27.2223,-90.0129,10.1,27.3,11111222
BP,ioos:station:wmo:42880:1,2022-11-01T01:22:00Z,27.2223,-90.0129,9.9,27.3,11111222
BP,ioos:station:wmo:42880:1,2022-11-01T01:32:00Z,27.2222,-90.0129,9.6,27.3,11111222
BP,ioos:station:wmo:42880:1,2022-11-01T01:42:00Z,27.2222,-90.0129,9.5,27.4,11111222
BP,ioos:station:wmo:42880:1,2022-11-01T01:52:00Z,27.2222,-90.0129,9.5,27.3,11111222
BP,ioos:station:wmo:42880:1,2022-11-01T02:02:00Z,27.2223,-90.0129,9.6,27.3,11111222
BP,ioos:station:wmo:42880:1,2022-11-01T02:12:00Z,27.2222,-90.0129,9.4,27.3,11111222
BP,ioos:station:wmo:42880:1,2022-11-01T02:22:00Z,27.2223,-90.0129,9.5,27.3,11111222
BP,ioos:station:wmo:42880:1,2022-11-01T02:32:00Z,27.2222,-90.0129,9.6,27.3,11111222
BP,ioos:station:wmo:42880:1,2022-11-01T02:42:00Z,27.2223,-90.0129,9.5,27.3,11111222
BP,ioos:station:wmo:42880:1,2022-11-01T02:52:00Z,27.2222,-90.0129,9.6,27.3,11111222
BP,ioos:station:wmo:42880:1,2022-11-01T03:02:00Z,27.2222,-90.0129,9.5,27.3,11111222
BP,ioos:station:wmo:42880:1,2022-11-01T03:12:00Z,27.2222,-90.0129,9.6,27.3,11111222
BP,ioos:station:wmo:42880:1,2022-11-01T03:22:00Z,27.2222,-90.0129,9.6,27.3,11111222
BP,ioos:station:wmo:42880:1,2022-11-01T03:32:00Z,27.2222,-90.0129,9.5,27.3,11111222
BP,ioos:station:wmo:42880:1,2022-11-01T03:42:00Z,27.2222,-90.0129,9.4,27.4,11111222
BP,ioos:station:wmo:42880:1,2022-11-01T03:52:00Z,27.2223,-90.0129,9.5,27.4,11111222
BP,ioos:station:wmo:42880:1,2022-11-01T04:02:00Z,27.2223,-90.0129,9.6,27.4,11111222
BP,ioos:station:wmo:42880:1,2022-11-01T04:12:00Z,27.2223,-90.0129,9.5,27.4,11111222
BP,ioos:station:wmo:42880:1,2022-11-01T04:22:00Z,27.2222,-90.0129,9.4,27.4,11111222
BP,ioos:station:wmo:42880:1,2022-11-01T04:32:00Z,27.2222,-90.0129,9.6,27.4,11111222
BP,ioos:station:wmo:42880:1,2022-11-01T04:43:00Z,27.2222,-90.0129,9.4,27.4,11111222
BP,ioos:station:wmo:42880:1,2022-11-01T04:53:00Z,27.2222,-90.0129,9.4,27.4,11111222
BP,ioos:station:wmo:42880:1,2022-11-01T05:03:00Z,27.2223,-90.0129,9.5,27.4,11111222
BP,ioos:station:wmo:42880:1,2022-11-01T05:13:00Z,27.2222,-90.0129,9.4,27.4,11111222
BP,ioos:station:wmo:42880:1,2022-11-01T05:23:00Z,27.2222,-90.0129,9.5,27.4,11111222
BP,ioos:station:wmo:42880:1,2022-11-01T05:33:00Z,27.2223,-90.0129,9.5,27.4,11111222
BP,ioos:station:wmo:42880:1,2022-11-01T05:43:00Z,27.2222,-90.0129,9.5,27.4,11111222
BP,ioos:station:wmo:42880:1,2022-11-01T05:53:00Z,27.2223,-90.0129,9.5,27.4,11111222
BP,ioos:station:wmo:42880:1,2022-11-01T06:03:00Z,27.2223,-90.0129,9.7,27.4,11111222
BP,ioos:station:wmo:42880:1,2022-11-01T06:13:00Z,27.2222,-90.0129,9.7,27.4,11111222
BP,ioos:station:wmo:42880:1,2022-11-01T06:23:00Z,27.2222,-90.0129,9.6,27.4,11111222
BP,ioos:station:wmo:42880:1,2022-11-01T06:33:00Z,27.2222,-90.0129,9.6,27.4,11111222
BP,ioos:station:wmo:42880:1,2022-11-01T06:43:00Z,27.2223,-90.0129,9.7,27.4,11111222
BP,ioos:station:wmo:42880:1,2022-11-01T06:53:00Z,27.2223,-90.0129,9.7,27.4,11111222
BP,ioos:station:wmo:42880:1,2022-11-01T07:03:00Z,27.2222,-90.0129,9.6,27.4,11111222
BP,ioos:station:wmo:42880:1,2022-11-01T07:13:00Z,27.2222,-90.0129,9.7,27.4,11111222
BP,ioos:station:wmo:42880:1,2022-11-01T07:23:00Z,27.2222,-90.0129,9.6,27.4,11111222
BP,ioos:station:wmo:42880:1,2022-11-01T07:33:00Z,27.2223,-90.0129,9.7,27.4,11111222
BP,ioos:station:wmo:42880:1,2022-11-01T07:43:00Z,27.2223,-90.0129,9.6,27.4,11111222
BP,ioos:station:wmo:42880:1,2022-11-01T07:53:00Z,27.2223,-90.0129,9.6,27.4,11111222
BP,ioos:station:wmo:42880:1,2022-11-01T08:03:00Z,27.2223,-90.0129,9.7,27.4,11111222
BP,ioos:station:wmo:42880:1,2022-11-01T08:13:00Z,27.2223,-90.0129,9.9,27.4,11111222
BP,ioos:station:wmo:42880:1,2022-11-01T08:23:00Z,27.2222,-90.0129,9.7,27.4,11111222
BP,ioos:station:wmo:42880:1,2022-11-01T08:33:00Z,27.2223,-90.0129,9.8,27.4,11111222
BP,ioos:station:wmo:42880:1,2022-11-01T08:43:00Z,27.2223,-90.0129,9.8,27.4,11111222
BP,ioos:station:wmo:42880:1,2022-11-01T08:53:00Z,27.2223,-90.0129,9.7,27.4,11111222
BP,ioos:station:wmo:42880:1,2022-11-01T09:03:00Z,27.2223,-90.0129,9.8,27.4,11111222
BP,ioos:station:wmo:42880:1,2022-11-01T09:13:00Z,27.2223,-90.0129,9.9,27.4,11111222
BP,ioos:station:wmo:42880:1,2022-11-01T09:23:00Z,27.2223,-90.0129,10.0,27.4,11111222
BP,ioos:station:wmo:42880:1,2022-11-01T09:33:00Z,27.2223,-90.0129,10.0,27.4,11111222
BP,ioos:station:wmo:42880:1,2022-11-01T09:43:00Z,27.2223,-90.0129,10.0,27.4,11111222
BP,ioos:station:wmo:42880:1,2022-11-01T09:53:00Z,27.2223,-90.0129,10.1,27.4,11111222
BP,ioos:station:wmo:42880:1,2022-11-01T10:03:00Z,27.2223,-90.0129,10.1,27.4,11111222
BP,ioos:station:wmo:42880:1,2022-11-01T10:13:00Z,27.2223,-90.0129,10.1,27.4,11111222
BP,ioos:station:wmo:42880:1,2022-11-01T10:23:00Z,27.2223,-90.0129,10.0,27.4,11111222
BP,ioos:station:wmo:42880:1,2022-11-01T10:33:00Z,27.2223,-90.0129,10.2,27.4,11111222
BP,ioos:station:wmo:42880:1,2022-11-01T10:43:00Z,27.2223,-90.0129,10.1,27.4,11111222
BP,ioos:station:wmo:42880:1,2022-11-01T10:53:00Z,27.2223,-90.0129,10.0,27.4,11111222
BP,ioos:station:wmo:42880:1,2022-11-01T11:03:00Z,27.2223,-90.0129,10.1,27.4,11111222
BP,ioos:station:wmo:42880:1,2022-11-01T11:13:00Z,27.2223,-90.0129,10.0,27.4,11111222
BP,ioos:station:wmo:42880:1,2022-11-01T11:23:00Z,27.2223,-90.0129,9.9,27.4,11111222
BP,ioos:station:wmo:42880:1,2022-11-01T11:33:00Z,27.2223,-90.0129,10.1,27.4,11111222
BP,ioos:station:wmo:42880:1,2022-11-01T11:43:00Z,27.2223,-90.0129,9.8,27.4,11111222
BP,ioos:station:wmo:42880:1,2022-11-01T11:53:00Z,27.2223,-90.0129,9.7,27.4,11111222
BP,ioos:station:wmo:42880:1,2022-11-01T12:04:00Z,27.2223,-90.0129,9.8,27.3,11111222
BP,ioos:station:wmo:42880:1,2022-11-01T12:14:00Z,27.2223,-90.0129,9.8,27.3,11111222
BP,ioos:station:wmo:42880:1,2022-11-01T12:24:00Z,27.2223,-90.0129,9.9,27.3,11111222
BP,ioos:station:wmo:42880:1,2022-11-01T12:34:00Z,27.2223,-90.0129,9.6,27.3,11111222
BP,ioos:station:wmo:42880:1,2022-11-01T12:44:00Z,27.2223,-90.0129,9.7,27.3,11111222
BP,ioos:station:wmo:42880:1,2022-11-01T12:54:00Z,27.2223,-90.0129,9.6,27.3,11111222
BP,ioos:station:wmo:42880:1,2022-11-01T13:04:00Z,27.2223,-90.0129,9.7,27.3,11111222
BP,ioos:station:wmo:42880:1,2022-11-01T13:14:00Z,27.2223,-90.0129,9.8,27.3,11111222
BP,ioos:station:wmo:42880:1,2022-11-01T13:24:00Z,27.2223,-90.0129,9.8,27.3,11111222
BP,ioos:station:wmo:42880:1,2022-11-01T13:34:00Z,27.2223,-90.0129,10.0,27.3,11111222
BP,ioos:station:wmo:42880:1,2022-11-01T13:44:00Z,27.2223,-90.0129,10.0,27.3,11111222
BP,ioos:station:wmo:42880:1,2022-11-01T13:54:00Z,27.2223,-90.0129,10.0,27.3,11111222
BP,ioos:station:wmo:42880:1,2022-11-01T14:04:00Z,27.2223,-90.0129,10.0,27.3,11111222
BP,ioos:station:wmo:42880:1,2022-11-01T14:14:00Z,27.2223,-90.0129,9.9,27.3,11111222
BP,ioos:station:wmo:42880:1,2022-11-01T14:24:00Z,27.2223,-90.0129,9.8,27.3,11111222
BP,ioos:station:wmo:42880:1,2022-11-01T14:34:00Z,27.2223,-90.0129,9.8,27.3,11111222
BP,ioos:station:wmo:42880:1,2022-11-01T14:44:00Z,27.2223,-90.0129,9.8,27.3,11111222
BP,ioos:station:wmo:42880:1,2022-11-01T14:54:00Z,27.2223,-90.0129,9.8,27.3,11111222
BP,ioos:station:wmo:42880:1,2022-11-01T15:04:00Z,27.2223,-90.0129,9.8,27.3,11111222
BP,ioos:station:wmo:42880:1,2022-11-01T15:14:00Z,27.2223,-90.0129,9.7,27.3,11111222
BP,ioos:station:wmo:42880:1,2022-11-01T15:24:00Z,27.2223,-90.0129,9.7,27.3,11111222
BP,ioos:station:wmo:42880:1,2022-11-01T15:34:00Z,27.2223,-90.0129,9.8,27.3,11111222
BP,ioos:station:wmo:42880:1,2022-11-01T15:44:00Z,27.2223,-90.0129,10.0,27.3,11111222
BP,ioos:station:wmo:42880:1,2022-11-01T15:54:00Z,27.2223,-90.0129,10.0,27.3,11111222
BP,ioos:station:wmo:42880:1,2022-11-01T16:04:00Z,27.2223,-90.0129,9.9,27.3,11111222
BP,ioos:station:wmo:42880:1,2022-11-01T16:14:00Z,27.2223,-90.0129,10.1,27.3,11111222
BP,ioos:station:wmo:42880:1,2022-11-01T16:24:00Z,27.2223,-90.0129,10.2,27.3,11111222
BP,ioos:station:wmo:42880:1,2022-11-01T16:34:00Z,27.2223,-90.0129,10.2,27.3,11111222
BP,ioos:station:wmo:42880:1,2022-11-01T16:44:00Z,27.2223,-90.0129,10.2,27.3,11111222
BP,ioos:station:wmo:42880:1,2022-11-01T16:54:00Z,27.2223,-90.0129,10.4,27.3,11111222
BP,ioos:station:wmo:42880:1,2022-11-01T17:04:00Z,27.2223,-90.0129,10.4,27.3,11111222
BP,ioos:station:wmo:42880:1,2022-11-01T17:14:00Z,27.2223,-90.0129,10.5,27.3,11111222
BP,ioos:station:wmo:42880:1,2022-11-01T17:24:00Z,27.2223,-90.0129,10.5,27.3,11111222
BP,ioos:station:wmo:42880:1,2022-11-01T17:34:00Z,27.2223,-90.0129,10.5,27.3,11111222
BP,ioos:station:wmo:42880:1,2022-11-01T17:44:00Z,27.2223,-90.0129,10.6,27.3,11111222
BP,ioos:station:wmo:42880:1,2022-11-01T17:54:00Z,27.2223,-90.0129,10.5,27.3,11111222
BP,ioos:station:wmo:42880:1,2022-11-01T18:04:00Z,27.2223,-90.0129,10.5,27.3,11111222
BP,ioos:station:wmo:42880:1,2022-11-01T18:14:00Z,27.2223,-90.0129,10.5,27.3,11111222
BP,ioos:station:wmo:42880:1,2022-11-01T18:24:00Z,27.2223,-90.0129,10.5,27.3,11111222
BP,ioos:station:wmo:42880:1,2022-11-01T18:34:00Z,27.2223,-90.0129,10.5,27.3,11111222
BP,ioos:station:wmo:42880:1,2022-11-01T18:44:00Z,27.2223,-90.0129,10.6,27.3,11111222
BP,ioos:station:wmo:42880:1,2022-11-01T18:54:00Z,27.2223,-90.0129,10.8,27.3,11111222
BP,ioos:station:wmo:42880:1,2022-11-01T19:04:00Z,27.2223,-90.0129,10.8,27.3,11111222
BP,ioos:station:wmo:42880:1,2022-11-01T19:15:00Z,27.2223,-90.0129,10.9,27.3,11111222
BP,ioos:station:wmo:42880:1,2022-11-01T19:25:00Z,27.2223,-90.0129,11.0,27.3,11111222
BP,ioos:station:wmo:42880:1,2022-11-01T19:35:00Z,27.2223,-90.0129,10.9,27.3,11111222
BP,ioos:station:wmo:42880:1,2022-11-01T19:45:00Z,27.2223,-90.0129,10.9,27.3,11111222
BP,ioos:station:wmo:42880:1,2022-11-01T19:55:00Z,27.2223,-90.0129,10.8,27.3,11111222
BP,ioos:station:wmo:42880:1,2022-11-01T20:05:00Z,27.2223,-90.0129,10.8,27.3,11111222
BP,ioos:station:wmo:42880:1,2022-11-01T20:15:00Z,27.2223,-90.0129,10.8,27.3,11111222
BP,ioos:station:wmo:42880:1,2022-11-01T20:25:00Z,27.2223,-90.0129,10.8,27.3,11111222
BP,ioos:station:wmo:42880:1,2022-11-01T20:35:00Z,27.2223,-90.0129,10.7,27.3,11111222
BP,ioos:station:wmo:42880:1,2022-11-01T20:45:00Z,27.2223,-90.0129,10.7,27.4,11111222
BP,ioos:station:wmo:42880:1,2022-11-01T20:55:00Z,27.2223,-90.0129,10.7,27.4,11111222
BP,ioos:station:wmo:42880:1,2022-11-01T21:05:00Z,27.2223,-90.0129,10.7,27.3,11111222
BP,ioos:station:wmo:42880:1,2022-11-01T21:15:00Z,27.2223,-90.0129,10.7,27.3,11111222
BP,ioos:station:wmo:42880:1,2022-11-01T21:25:00Z,27.2224,-90.0128,10.7,27.3,11111222
BP,ioos:station:wmo:42880:1,2022-11-01T21:35:00Z,27.2227,-90.0126,10.8,27.3,11111222
BP,ioos:station:wmo:42880:1,2022-11-01T21:45:00Z,27.2227,-90.0126,10.5,27.3,11111222
BP,ioos:station:wmo:42880:1,2022-11-01T21:55:00Z,27.2229,-90.0127,10.0,27.3,11111222
BP,ioos:station:wmo:42880:1,2022-11-01T22:05:00Z,27.2234,-90.0130,9.3,27.3,11111222
BP,ioos:station:wmo:42880:1,2022-11-01T22:15:00Z,27.2239,-90.0132,9.3,27.3,11111222
BP,ioos:station:wmo:42880:1,2022-11-01T22:25:00Z,27.2240,-90.0133,9.9,27.3,11111222
BP,ioos:station:wmo:42880:1,2022-11-01T22:35:00Z,27.2240,-90.0133,10.3,27.3,11111222
BP,ioos:station:wmo:42880:1,2022-11-01T22:45:00Z,27.2241,-90.0134,10.2,27.3,11111222
BP,ioos:station:wmo:42880:1,2022-11-01T22:55:00Z,27.2242,-90.0134,10.1,27.3,11111222
BP,ioos:station:wmo:42880:1,2022-11-01T23:05:00Z,27.2242,-90.0134,10.1,27.3,11111222
BP,ioos:station:wmo:42880:1,2022-11-01T23:15:00Z,27.2242,-90.0134,10.2,27.3,11111222
BP,ioos:station:wmo:42880:1,2022-11-01T23:25:00Z,27.2243,-90.0134,10.1,27.3,11111222
BP,ioos:station:wmo:42880:1,2022-11-01T23:35:00Z,27.2243,-90.0134,10.1,27.3,11111222
BP,ioos:station:wmo:42880:1,2022-11-01T23:45:00Z,27.2243,-90.0134,10.2,27.3,11111222
BP,ioos:station:wmo:42880:1,2022-11-01T23:55:00Z,27.2243,-90.0134,10.2,27.3,11111222
BP,ioos:station:wmo:42880:1,2022-11-02T00:05:00Z,27.2243,-90.0134,10.1,27.3,11111222
BP,ioos:station:wmo:42880:1,2022-11-02T00:15:00Z,27.2243,-90.0134,10.2,27.3,11111222
BP,ioos:station:wmo:42880:1,2022-11-02T00:25:00Z,27.2243,-90.0134,10.2,27.3,11111222
BP,ioos:station:wmo:42880:1,2022-11-02T00:35:00Z,27.2243,-90.0134,10.1,27.3,11111222
BP,ioos:station:wmo:42880:1,2022-11-02T00:45:00Z,27.2243,-90.0134,10.2,27.3,11111222
BP,ioos:station:wmo:42880:1,2022-11-02T00:55:00Z,27.2243,-90.0134,10.2,27.3,11111222
BP,ioos:station:wmo:42880:1,2022-11-02T01:05:00Z,27.2243,-90.0134,10.2,27.3,11111222
BP,ioos:station:wmo:42880:1,2022-11-02T01:15:00Z,27.2243,-90.0134,10.2,27.3,11111222
BP,ioos:station:wmo:42880:1,2022-11-02T01:25:00Z,27.2243,-90.0134,10.1,27.3,11111222
BP,ioos:station:wmo:42880:1,2022-11-02T01:35:00Z,27.2243,-90.0134,10.2,27.3,11111222
BP,ioos:station:wmo:42880:1,2022-11-02T01:45:00Z,27.2243,-90.0134,10.2,27.3,11111222
BP,ioos:station:wmo:42880:1,2022-11-02T01:55:00Z,27.2243,-90.0134,10.3,27.3,11111222
BP,ioos:station:wmo:42880:1,2022-11-02T02:05:00Z,27.2243,-90.0134,10.3,27.3,11111222
BP,ioos:station:wmo:42880:1,2022-11-02T02:15:00Z,27.2243,-90.0134,10.3,27.3,11111222
BP,ioos:station:wmo:42880:1,2022-11-02T02:25:00Z,27.2243,-90.0134,10.2,27.3,11111222
BP,ioos:station:wmo:42880:1,2022-11-02T02:36:00Z,27.2243,-90.0134,10.3,27.3,11111222
BP,ioos:station:wmo:42880:1,2022-11-02T02:46:00Z,27.2243,-90.0134,10.3,27.3,11111222
BP,ioos:station:wmo:42880:1,2022-11-02T02:56:00Z,27.2243,-90.0134,10.2,27.3,11111222
BP,ioos:station:wmo:42880:1,2022-11-02T03:06:00Z,27.2243,-90.0134,10.5,27.3,11111222
BP,ioos:station:wmo:42880:1,2022-11-02T03:16:00Z,27.2243,-90.0134,10.6,27.3,11111222
BP,ioos:station:wmo:42880:1,2022-11-02T03:26:00Z,27.2243,-90.0134,10.6,27.3,11111222
BP,ioos:station:wmo:42880:1,2022-11-02T03:36:00Z,27.2243,-90.0134,10.7,27.3,11111222
BP,ioos:station:wmo:42880:1,2022-11-02T03:46:00Z,27.2243,-90.0134,10.7,27.3,11111222
BP,ioos:station:wmo:42880:1,2022-11-02T03:56:00Z,27.2243,-90.0134,10.7,27.3,11111222
BP,ioos:station:wmo:42880:1,2022-11-02T04:06:00Z,27.2243,-90.0134,10.7,27.3,11111222
BP,ioos:station:wmo:42880:1,2022-11-02T04:16:00Z,27.2243,-90.0134,10.7,27.3,11111222
BP,ioos:station:wmo:42880:1,2022-11-02T04:26:00Z,27.2243,-90.0134,10.7,27.3,11111222
BP,ioos:station:wmo:42880:1,2022-11-02T04:36:00Z,27.2242,-90.0134,10.7,27.3,11111222
BP,ioos:station:wmo:42880:1,2022-11-02T04:46:00Z,27.2237,-90.0132,10.7,27.3,11111222
BP,ioos:station:wmo:42880:1,2022-11-02T04:56:00Z,27.2231,-90.0131,10.6,27.3,11111222
BP,ioos:station:wmo:42880:1,2022-11-02T05:06:00Z,27.2226,-90.0129,10.6,27.3,11111222
BP,ioos:station:wmo:42880:1,2022-11-02T05:16:00Z,27.2224,-90.0128,10.6,27.3,11111222
BP,ioos:station:wmo:42880:1,2022-11-02T05:26:00Z,27.2223,-90.0128,10.6,27.3,11111222
BP,ioos:station:wmo:42880:1,2022-11-02T05:36:00Z,27.2224,-90.0128,10.6,27.3,11111222
BP,ioos:station:wmo:42880:1,2022-11-02T05:46:00Z,27.2223,-90.0129,10.4,27.3,11111222
BP,ioos:station:wmo:42880:1,2022-11-02T05:56:00Z,27.2223,-90.0128,10.8,27.3,11111222
BP,ioos:station:wmo:42880:1,2022-11-02T06:06:00Z,27.2223,-90.0127,11.1,27.3,11111222
BP,ioos:station:wmo:42880:1,2022-11-02T06:16:00Z,27.2223,-90.0127,10.7,27.3,11111222
BP,ioos:station:wmo:42880:1,2022-11-02T06:26:00Z,27.2223,-90.0127,10.6,27.3,11111222
BP,ioos:station:wmo:42880:1,2022-11-02T06:36:00Z,27.2224,-90.0129,10.5,27.3,11111222
BP,ioos:station:wmo:42880:1,2022-11-02T06:46:00Z,27.2226,-90.0130,10.6,27.3,11111222
BP,ioos:station:wmo:42880:1,2022-11-02T06:56:00Z,27.2231,-90.0133,10.5,27.3,11111222
BP,ioos:station:wmo:42880:1,2022-11-02T07:06:00Z,27.2236,-90.0136,10.5,27.3,11111222
BP,ioos:station:wmo:42880:1,2022-11-02T07:16:00Z,27.2241,-90.0138,10.5,27.3,11111222
BP,ioos:station:wmo:42880:1,2022-11-02T07:26:00Z,27.2242,-90.0139,10.5,27.3,11111222
BP,ioos:station:wmo:42880:1,2022-11-02T07:36:00Z,27.2242,-90.0139,10.4,27.3,11111222
BP,ioos:station:wmo:42880:1,2022-11-02T07:46:00Z,27.2242,-90.0139,10.2,27.3,11111222
BP,ioos:station:wmo:42880:1,2022-11-02T07:56:00Z,27.2240,-90.0135,10.3,27.3,11111222
BP,ioos:station:wmo:42880:1,2022-11-02T08:06:00Z,27.2242,-90.0139,10.1,27.3,11111222
BP,ioos:station:wmo:42880:1,2022-11-02T08:16:00Z,27.2242,-90.0139,10.2,27.3,11111222
BP,ioos:station:wmo:42880:1,2022-11-02T08:26:00Z,27.2242,-90.0139,10.2,27.3,11111222
BP,ioos:station:wmo:42880:1,2022-11-02T08:36:00Z,27.2242,-90.0139,10.2,27.3,11111222
BP,ioos:station:wmo:42880:1,2022-11-02T08:46:00Z,27.2242,-90.0139,10.2,27.3,11111222
BP,ioos:station:wmo:42880:1,2022-11-02T08:56:00Z,27.2242,-90.0139,10.2,27.3,11111222
BP,ioos:station:wmo:42880:1,2022-11-02T09:06:00Z,27.2242,-90.0139,10.2,27.3,11111222
BP,ioos:station:wmo:42880:1,2022-11-02T09:16:00Z,27.2242,-90.0139,10.2,27.3,11111222
BP,ioos:station:wmo:42880:1,2022-11-02T09:26:00Z,27.2242,-90.0139,10.2,27.3,11111222
BP,ioos:station:wmo:42880:1,2022-11-02T09:36:00Z,27.2243,-90.0139,10.2,27.3,11111222
BP,ioos:station:wmo:42880:1,2022-11-02T09:46:00Z,27.2244,-90.0139,10.3,27.3,11111222
BP,ioos:station:wmo:42880:1,2022-11-02T09:57:00Z,27.2244,-90.0139,10.3,27.3,11111222
BP,ioos:station:wmo:42880:1,2022-11-02T10:07:00Z,27.2244,-90.0139,10.3,27.3,11111222
BP,ioos:station:wmo:42880:1,2022-11-02T10:17:00Z,27.2244,-90.0139,10.3,27.3,11111222
BP,ioos:station:wmo:42880:1,2022-11-02T10:27:00Z,27.2244,-90.0139,10.3,27.3,11111222
BP,ioos:station:wmo:42880:1,2022-11-02T10:37:00Z,27.2244,-90.0139,10.3,27.3,11111222
BP,ioos:station:wmo:42880:1,2022-11-02T10:47:00Z,27.2244,-90.0139,10.3,27.3,11111222
BP,ioos:station:wmo:42880:1,2022-11-02T10:57:00Z,27.2244,-90.0138,10.3,27.3,11111222
BP,ioos:station:wmo:42880:1,2022-11-02T11:07:00Z,27.2244,-90.0139,10.3,27.3,11111222
BP,ioos:station:wmo:42880:1,2022-11-02T11:17:00Z,27.2244,-90.0138,10.3,27.3,11111222
BP,ioos:station:wmo:42880:1,2022-11-02T11:27:00Z,27.2244,-90.0138,10.3,27.3,11111222
BP,ioos:station:wmo:42880:1,2022-11-02T11:37:00Z,27.2244,-90.0138,10.3,27.3,11111222
BP,ioos:station:wmo:42880:1,2022-11-02T11:47:00Z,27.2244,-90.0138,10.4,27.3,11111222
BP,ioos:station:wmo:42880:1,2022-11-02T11:57:00Z,27.2244,-90.0138,10.4,27.3,11111222
BP,ioos:station:wmo:42880:1,2022-11-02T12:07:00Z,27.2244,-90.0138,10.4,27.3,11111222
BP,ioos:station:wmo:42880:1,2022-11-02T12:17:00Z,27.2244,-90.0139,10.5,27.3,11111222
BP,ioos:station:wmo:42880:1,2022-11-02T12:27:00Z,27.2244,-90.0138,10.5,27.3,11111222
BP,ioos:station:wmo:42880:1,2022-11-02T12:37:00Z,27.2244,-90.0138,10.6,27.3,11111222
BP,ioos:station:wmo:42880:1,2022-11-02T12:47:00Z,27.2244,-90.0138,10.6,27.3,11111222
BP,ioos:station:wmo:42880:1,2022-11-02T12:57:00Z,27.2244,-90.0138,10.6,27.3,11111222
BP,ioos:station:wmo:42880:1,2022-11-02T13:07:00Z,27.2244,-90.0138,10.6,27.3,11111222
BP,ioos:station:wmo:42880:1,2022-11-02T13:17:00Z,27.2244,-90.0138,10.6,27.3,11111222
BP,ioos:station:wmo:42880:1,2022-11-02T13:27:00Z,27.2244,-90.0138,10.6,27.3,11111222
BP,ioos:station:wmo:42880:1,2022-11-02T13:37:00Z,27.2244,-90.0138,10.6,27.3,11111222
BP,ioos:station:wmo:42880:1,2022-11-02T13:47:00Z,27.2244,-90.0138,10.6,27.3,11111222
BP,ioos:station:wmo:42880:1,2022-11-02T13:57:00Z,27.2244,-90.0138,10.6,27.3,11111222
BP,ioos:station:wmo:42880:1,2022-11-02T14:07:00Z,27.2244,-90.0138,10.6,27.3,11111222
BP,ioos:station:wmo:42880:1,2022-11-02T14:17:00Z,27.2244,-90.0138,10.7,27.3,11111222
BP,ioos:station:wmo:42880:1,2022-11-02T14:27:00Z,27.2244,-90.0138,10.6,27.3,11111222
BP,ioos:station:wmo:42880:1,2022-11-02T14:37:00Z,27.2244,-90.0138,10.7,27.3,11111222
BP,ioos:station:wmo:42880:1,2022-11-02T14:47:00Z,27.2244,-90.0138,10.7,27.3,11111222
BP,ioos:station:wmo:42880:1,2022-11-02T14:57:00Z,27.2244,-90.0138,10.7,27.3,11111222
BP,ioos:station:wmo:42880:1,2022-11-02T15:07:00Z,27.2244,-90.0138,10.7,27.3,11111222
BP,ioos:station:wmo:42880:1,2022-11-02T15:17:00Z,27.2244,-90.0138,10.7,27.4,11111222
BP,ioos:station:wmo:42880:1,2022-11-02T15:27:00Z,27.2244,-90.0139,10.7,27.3,11111222
BP,ioos:station:wmo:42880:1,2022-11-02T15:37:00Z,27.2244,-90.0138,10.5,27.3,11111222
BP,ioos:station:wmo:42880:1,2022-11-02T15:47:00Z,27.2244,-90.0138,10.5,27.3,11111222
BP,ioos:station:wmo:42880:1,2022-11-02T15:57:00Z,27.2244,-90.0138,10.5,27.3,11111222
BP,ioos:station:wmo:42880:1,2022-11-02T16:07:00Z,27.2244,-90.0138,10.5,27.3,11111222
BP,ioos:station:wmo:42880:1,2022-11-02T16:17:00Z,27.2244,-90.0138,10.6,27.3,11111222
BP,ioos:station:wmo:42880:1,2022-11-02T16:27:00Z,27.2244,-90.0138,10.6,27.4,11111222
BP,ioos:station:wmo:42880:1,2022-11-02T16:37:00Z,27.2244,-90.0138,10.6,27.4,11111222
BP,ioos:station:wmo:42880:1,2022-11-02T16:47:00Z,27.2244,-90.0138,10.7,27.4,11111222
BP,ioos:station:wmo:42880:1,2022-11-02T16:57:00Z,27.2244,-90.0138,10.7,27.4,11111222
BP,ioos:station:wmo:42880:1,2022-11-02T17:07:00Z,27.2244,-90.0138,10.7,27.4,11111222
BP,ioos:station:wmo:42880:1,2022-11-02T17:18:00Z,27.2244,-90.0138,10.7,27.4,11111222
BP,ioos:station:wmo:42880:1,2022-11-02T17:28:00Z,27.2244,-90.0138,10.7,27.4,11111222
BP,ioos:station:wmo:42880:1,2022-11-02T17:38:00Z,27.2244,-90.0138,10.7,27.4,11111222
BP,ioos:station:wmo:42880:1,2022-11-02T17:48:00Z,27.2244,-90.0138,10.7,27.4,11111222
BP,ioos:station:wmo:42880:1,2022-11-02T17:58:00Z,27.2244,-90.0138,10.7,27.4,11111222
BP,ioos:station:wmo:42880:1,2022-11-02T18:08:00Z,27.2244,-90.0138,10.7,27.4,11111222
BP,ioos:station:wmo:42880:1,2022-11-02T18:18:00Z,27.2244,-90.0138,10.7,27.4,11111222
BP,ioos:station:wmo:42880:1,2022-11-02T18:28:00Z,27.2244,-90.0138,10.7,27.4,11111222
BP,ioos:station:wmo:42880:1,2022-11-02T18:38:00Z,27.2244,-90.0138,10.7,27.4,11111222
BP,ioos:station:wmo:42880:1,2022-11-02T18:48:00Z,27.2244,-90.0138,10.7,27.4,11111222
BP,ioos:station:wmo:42880:1,2022-11-02T18:58:00Z,27.2244,-90.0138,10.7,27.4,11111222
BP,ioos:station:wmo:42880:1,2022-11-02T19:08:00Z,27.2244,-90.0138,10.7,27.4,11111222
BP,ioos:station:wmo:42880:1,2022-11-02T19:18:00Z,27.2244,-90.0138,10.7,27.4,11111222
BP,ioos:station:wmo:42880:1,2022-11-02T19:28:00Z,27.2244,-90.0138,10.7,27.4,11111222
BP,ioos:station:wmo:42880:1,2022-11-02T19:38:00Z,27.2244,-90.0138,10.7,27.4,11111222
BP,ioos:station:wmo:42880:1,2022-11-02T19:48:00Z,27.2244,-90.0138,10.8,27.4,11111222
BP,ioos:station:wmo:42880:1,2022-11-02T19:58:00Z,27.2244,-90.0138,10.8,27.4,11111222
BP,ioos:station:wmo:42880:1,2022-11-02T20:08:00Z,27.2244,-90.0138,10.8,27.4,11111222
BP,ioos:station:wmo:42880:1,2022-11-02T20:18:00Z,27.2244,-90.0138,10.8,27.4,11111222
BP,ioos:station:wmo:42880:1,2022-11-02T20:28:00Z,27.2244,-90.0138,10.8,27.4,11111222
BP,ioos:station:wmo:42880:1,2022-11-02T20:38:00Z,27.2244,-90.0138,10.8,27.4,11111222
BP,ioos:station:wmo:42880:1,2022-11-02T20:48:00Z,27.2244,-90.0138,10.7,27.4,11111222
BP,ioos:station:wmo:42880:1,2022-11-02T20:58:00Z,27.2244,-90.0138,10.8,27.4,11111222
BP,ioos:station:wmo:42880:1,2022-11-02T21:08:00Z,27.2244,-90.0138,10.7,27.4,11111222
BP,ioos:station:wmo:42880:1,2022-11-02T21:18:00Z,27.2244,-90.0138,10.7,27.4,11111222
BP,ioos:station:wmo:42880:1,2022-11-02T21:28:00Z,27.2244,-90.0138,10.6,27.5,11111222
BP,ioos:station:wmo:42880:1,2022-11-02T21:38:00Z,27.2244,-90.0138,10.6,27.4,11111222
BP,ioos:station:wmo:42880:1,2022-11-02T21:48:00Z,27.2244,-90.0138,10.5,27.4,11111222
BP,ioos:station:wmo:42880:1,2022-11-02T21:58:00Z,27.2244,-90.0138,10.5,27.4,11111222
BP,ioos:station:wmo:42880:1,2022-11-02T22:08:00Z,27.2244,-90.0138,10.5,27.4,11111222
BP,ioos:station:wmo:42880:1,2022-11-02T22:18:00Z,27.2244,-90.0138,10.5,27.4,11111222